Regional Weather Roundup
Issued by NWS

Home | Current Version | Previous Version | Graphics & Text | Print | Product List | Glossary On
Versions: 1 2 3 4 5 6 7 8 9 10 11 12 13 14 15 16 17 18 19 20 21 22 23 24 25 26 27 28 29 30 31 32 33 34 35 36 37 38 39 40 41 42 43 44 45 46 47 48 49 50
000
ASUS45 KABQ 240301
RWRNM
NEW MEXICO REGIONAL WEATHER ROUNDUP
NATIONAL WEATHER SERVICE ALBUQUERQUE NM
900 PM MDT MON OCT 23 2017

NOTE: "FAIR" MEANS FEW OR NO CLOUDS BELOW 12,000 FEET AGL WITH NO
       SIGNIFICANT WEATHER OR OBSTRUCTIONS TO VISION.

      THIS PRODUCT IS RELEASED AS TWO VERSIONS.  ONE VERSION NEAR
      THE TOP OF THE HOUR CONTAINING PRELIMINARY DATA FROM ALBUQUERQUE
      AND OTHER STATIONS.  A FINAL VERSION WITH ADDITIONAL DATA IS
      ISSUED ABOUT 10 MINUTES AFTER THE HOUR.

NMZ501-503-504-510>518-240400-
NORTHWEST PLATEAU/NORTHCENTRAL MOUNTAINS

CITY           SKY/WX    TMP DP  RH WIND       PRES   REMARKS
FARMINGTON     FAIR      60  24  25 W13       30.37S
LOS ALAMOS     FAIR      58  24  27 S7        30.45R
SANTA FE       FAIR      56  33  42 SE13      30.41R
TAOS           FAIR      52  27  38 S3        30.46R
ANGEL FIRE     FAIR      43  30  62 CALM      30.54R

$$
NMZ402-403-502-505>509-240400-
WESTCENTRAL MOUNTAINS/SOUTHWEST MOUNTAINS

CITY           SKY/WX    TMP DP  RH WIND       PRES   REMARKS
GALLUP         FAIR      50  22  33 CALM      30.46R
GRANTS         FAIR      50  23  35 N6        30.46S
SILVER CITY    MOCLDY    60  19  19 N9        30.32R

$$
NMZ407-409-411-412-240400-
SOUTHERN DESERTS

CITY           SKY/WX    TMP DP  RH WIND       PRES   REMARKS
DEMING         FAIR      62  25  24 CALM      30.26R
LAS CRUCES     FAIR      64  29  27 NE7       30.28R
HOLLOMAN AFB   FAIR      62  35  36 NE6       30.26R
ALAMOGORDO     FAIR      68  32  26 SE3       30.26R
T OR C         FAIR      67  29  24 NW6       30.30R

$$
NMZ519>523-240400-
CENTRAL VALLEYS/CENTRAL HIGHLANDS

CITY           SKY/WX    TMP DP  RH WIND       PRES   REMARKS
ALBUQUERQUE    FAIR      61  26  26 CALM      30.36R
DOUBLE EAGLE   CLEAR     61  27  27 NW10      30.38S
MORIARTY ARPT  FAIR      53  34  47 E10       30.45R
CLINES CORNERS FAIR      46  32  58 E15       30.49R
BELEN          FAIR      58  26  28 NW5       30.35R
SOCORRO        FAIR      64  26  24 NW7       30.33R

$$
NMZ524>526-539-540-240400-
SOUTHCENTRAL MOUNTAINS

CITY           SKY/WX    TMP DP  RH WIND       PRES   REMARKS
RUIDOSO        FAIR      54  32  43 SE3       30.50R

$$
NMZ527>531-240400-
NORTHEAST HIGHLANDS/NORTHEAST PLAINS

CITY           SKY/WX    TMP DP  RH WIND       PRES   REMARKS
LAS VEGAS      FAIR      42  32  67 E9        30.52R
RATON          NOT AVBL
CLAYTON        FAIR      42  27  55 N10       30.48R

$$
NMZ532>537-240400-
EASTCENTRAL PLAINS

CITY           SKY/WX    TMP DP  RH WIND       PRES   REMARKS
SANTA ROSA     FAIR      54  35  49 NE12G17   30.43R
TUCUMCARI      FAIR      48  35  60 NE9       30.42R
CANNON AFB     NOT AVBL
CLOVIS AIRPORT   N/A     49  38  65 NE13      30.42R

$$
NMZ028-029-538-240400-
SOUTHEAST PLAINS

CITY           SKY/WX    TMP DP  RH WIND       PRES   REMARKS
ROSWELL        FAIR      62  39  42 NE9       30.33R
ARTESIA        FAIR      61  41  48 NW8       30.31R
CARLSBAD       FAIR      66  39  37 NE6       30.27R
HOBBS          FAIR      63  36  36 E14G21    30.31R


$$



USA.gov is the U.S. government's official web portal to all federal, state and local government web resources and services.